Starlink 30378

operational
NORAD ID: 57787 Int'l Des: 2023-134 Owner: SPXS Country: US Constellation: starlink
LEOCIRCULAR

Starlink 30378について

説明を読み込み中...

リアルタイム位置

3D地球を読み込み中...

次回通過

高度履歴

Altitude vs Time

uPlot chart will show altitude changes over time

軌道要素

1 57787U 23134S 25308.63002497 -.00000140 00000-0 46841-5 0 9990
2 57787 43.0017 156.6476 0001094 269.1662 90.9055 15.02534460120665
Epoch: Nov 4, 2025 • Age: 18 hours

現在のステータス

高度 559.9 km
速度 7.58 km/s
衛星直下点 -6.87°S, 152.31°E
打ち上げ日 Sep 4, 2023
運用期間 2.1 years
タイプ internet

技術仕様

分類 Payload
質量 730.00 kg
乾燥質量 700.00 kg
総質量 730.00 kg
長さ 0.30 m
直径 4.10 m
スパン 29.00 m
形状 Box + pan
製造者 SPXS
バスタイプ Starlink V2M
フェーズステータス In Orbit
所有者/国 SPXS/US

大規模コンステレーション

Loading constellations...